| time (UTC) | temp F | wind direction | speed MPH | gust MPH | rain 1hr in | rain 24hr in | rain mn in | humidity % | barometer mb |
| 20260505031538 | 79 | 99 | 4.0 | 9.0 | 0.00 | 0.00 | 0.00 | 79 | 1010.9 |
| 20260505030028 | 80 | 61 | 3.0 | 10.0 | 0.00 | 0.00 | 0.00 | 78 | 1010.9 |
| 20260505024527 | 80 | 116 | 2.0 | 8.0 | 0.00 | 0.00 | 0.00 | 78 | 1010.9 |
| 20260505023025 | 81 | 118 | 3.0 | 11.0 | 0.00 | 0.00 | 0.00 | 77 | 1010.8 |
| 20260505021527 | 81 | 164 | 3.0 | 11.0 | 0.00 | 0.00 | 0.00 | 76 | 1010.7 |
| 20260505020012 | 81 | 135 | 4.0 | 13.0 | 0.00 | 0.00 | 0.00 | 75 | 1010.5 |
| 20260505014511 | 82 | 53 | 2.0 | 8.0 | 0.00 | 0.00 | 0.00 | 74 | 1010.5 |
| 20260505013010 | 82 | 107 | 3.0 | 9.0 | 0.00 | 0.00 | 0.00 | 73 | 1010.3 |
| 20260505011510 | 82 | 93 | 2.0 | 9.0 | 0.00 | 0.00 | 0.00 | 72 | 1010.0 |
| 20260505010016 | 83 | 16 | 3.0 | 9.0 | 0.00 | 0.00 | 0.00 | 71 | 1009.7 |
| 20260505004507 | 83 | 29 | 3.0 | 7.0 | 0.00 | 0.00 | 0.00 | 70 | 1009.6 |
| 20260505003009 | 84 | 117 | 2.0 | 12.0 | 0.00 | 0.00 | 0.00 | 69 | 1009.4 |
| 20260505001505 | 84 | 46 | 3.0 | 10.0 | 0.00 | 0.00 | 0.00 | 68 | 1009.2 |
| 20260505000051 | 84 | 69 | 4.0 | 9.0 | 0.00 | 0.00 | 0.00 | 68 | 1008.9 |
| 20260504234550 | 85 | 26 | 0.0 | 5.0 | 0.00 | 0.00 | 0.00 | 66 | 1008.7 |
| 20260504233048 | 85 | 127 | 2.0 | 7.0 | 0.00 | 0.00 | 0.00 | 65 | 1008.5 |
| 20260504231548 | 86 | 69 | 3.0 | 8.0 | 0.00 | 0.00 | 0.00 | 65 | 1008.3 |
| 20260504230048 | 86 | 82 | 1.0 | 9.0 | 0.00 | 0.00 | 0.00 | 64 | 1008.3 |
| 20260504224544 | 87 | 37 | 4.0 | 10.0 | 0.00 | 0.00 | 0.00 | 62 | 1008.2 |
| 20260504223050 | 0 | 0.0 | 0.0 | 0.00 | 0.00 | 0.00 | 1008.1 | ||
| 20260504221551 | 0 | 0.0 | 0.0 | 0.00 | 0.00 | 0.00 | 1007.6 | ||
| 20260504220023 | 0 | 0.0 | 0.0 | 0.00 | 0.00 | 0.00 | 1007.5 | ||
| 20260504214618 | 0 | 0.0 | 0.0 | 0.00 | 0.00 | 0.00 | 1007.1 | ||
| 20260504213012 | 0 | 0.0 | 0.0 | 0.00 | 0.00 | 0.00 | 1006.9 | ||
| 20260504211507 | 0 | 0.0 | 0.0 | 0.00 | 0.00 | 0.00 | 1006.9 | ||
| 20260504210003 | 0 | 0.0 | 0.0 | 0.00 | 0.00 | 0.00 | 1006.9 | ||
| 20260504204606 | 0 | 0.0 | 0.0 | 0.00 | 0.00 | 0.00 | 1006.8 | ||
| 20260504203055 | 0 | 0.0 | 0.0 | 0.00 | 0.00 | 0.00 | 1006.9 | ||
| 20260504201552 | 0 | 0.0 | 0.0 | 0.00 | 0.00 | 0.00 | 1007.0 | ||
| 20260504200035 | 0 | 0.0 | 0.0 | 0.00 | 0.00 | 0.00 | 1007.0 | ||
| 20260504194539 | 0 | 0.0 | 0.0 | 0.00 | 0.00 | 0.00 | 1007.1 | ||
| 20260504193026 | 0 | 0.0 | 0.0 | 0.00 | 0.00 | 0.00 | 1007.4 | ||
| 20260504191534 | 0 | 0.0 | 0.0 | 0.00 | 0.00 | 0.00 | 1007.4 | ||
| 20260504190017 | 0 | 0.0 | 0.0 | 0.00 | 0.00 | 0.00 | 1007.6 | ||
| 20260504184517 | 0 | 0.0 | 0.0 | 0.00 | 0.00 | 0.00 | 1007.9 | ||
| 20260504183009 | 0 | 0.0 | 0.0 | 0.00 | 0.00 | 0.00 | 1008.0 | ||
| 20260504181512 | 0 | 0.0 | 0.0 | 0.00 | 0.00 | 0.00 | 1008.2 | ||
| 20260504180048 | 0 | 0.0 | 0.0 | 0.00 | 0.00 | 0.00 | 1008.4 | ||
| 20260504174543 | 0 | 0.0 | 0.0 | 0.00 | 0.00 | 0.00 | 1008.6 | ||
| 20260504173117 | 0 | 0.0 | 0.0 | 0.00 | 0.00 | 0.00 | 1009.1 | ||
| 20260504171512 | 0 | 0.0 | 0.0 | 0.00 | 0.00 | 0.00 | 1009.4 | ||
| 20260504081552 | 75 | 63 | 1.0 | 4.0 | 0.00 | 0.00 | 0.00 | 85 | 1009.3 |
| 20260504080109 | 75 | 48 | 0.0 | 2.0 | 0.00 | 0.00 | 0.00 | 86 | 1009.3 |
| 20260504044542 | 78 | 128 | 2.0 | 7.0 | 0.00 | 0.00 | 0.00 | 82 | 1010.2 |
| 20260504041542 | 78 | 29 | 4.0 | 9.0 | 0.00 | 0.00 | 0.00 | 81 | 1010.5 |
| 20260504040100 | 79 | 93 | 2.0 | 9.0 | 0.00 | 0.00 | 0.00 | 80 | 1010.7 |
| 20260504034540 | 79 | 85 | 2.0 | 8.0 | 0.00 | 0.00 | 0.00 | 79 | 1010.7 |